TimeCST,TemperatureF,Dew PointF,Humidity,Sea Level PressureIn,VisibilityMPH,Wind Direction,Wind SpeedMPH,Gust SpeedMPH,PrecipitationIn,Events,Conditions,WindDirDegrees,DateUTC
12:11 AM,28.0,26.1,92,29.85,2.0,North,13.8,-,0.00,Rain,Light Freezing Rain,360,2014-02-01 06:11:00
12:52 AM,27.0,26.1,96,29.86,2.5,North,13.8,-,0.00,,Overcast,10,2014-02-01 06:52:00
1:23 AM,27.0,25.0,92,29.81,2.5,NNE,10.4,-,N/A,,Overcast,20,2014-02-01 07:23:00
1:34 AM,27.0,25.0,92,29.82,2.5,North,10.4,-,N/A,,Overcast,10,2014-02-01 07:34:00
1:52 AM,27.0,25.0,92,29.86,2.0,North,11.5,-,0.00,Rain,Light Freezing Rain,350,2014-02-01 07:52:00
2:31 AM,27.0,26.1,96,29.82,2.5,NNE,4.6,-,0.00,Rain,Light Freezing Rain,30,2014-02-01 08:31:00
2:52 AM,28.0,27.0,96,29.84,2.5,NNW,9.2,-,0.00,Rain,Light Freezing Rain,340,2014-02-01 08:52:00
3:01 AM,28.0,27.0,96,29.82,3.0,North,9.2,-,0.00,Rain,Light Freezing Rain,350,2014-02-01 09:01:00
3:34 AM,28.0,27.0,96,29.83,4.0,NW,6.9,-,0.00,,Overcast,320,2014-02-01 09:34:00
3:49 AM,28.4,26.6,93,29.83,3.0,NNW,10.4,-,0.00,,Overcast,330,2014-02-01 09:49:00
3:52 AM,28.0,26.1,92,29.86,3.0,NW,10.4,-,0.00,,Overcast,320,2014-02-01 09:52:00
4:08 AM,28.0,26.1,92,29.82,2.5,NNW,8.1,-,N/A,,Overcast,330,2014-02-01 10:08:00
4:16 AM,28.0,27.0,96,29.82,3.0,NNW,5.8,-,N/A,,Overcast,340,2014-02-01 10:16:00
4:48 AM,28.4,26.6,93,29.81,5.0,Calm,Calm,-,N/A,,Overcast,0,2014-02-01 10:48:00
4:52 AM,28.0,27.0,96,29.84,5.0,Calm,Calm,-,N/A,,Overcast,0,2014-02-01 10:52:00
5:52 AM,28.0,26.1,92,29.89,6.0,NW,11.5,-,N/A,,Overcast,310,2014-02-01 11:52:00
6:52 AM,28.0,26.1,92,29.91,6.0,NW,5.8,-,N/A,,Overcast,320,2014-02-01 12:52:00
7:52 AM,28.0,27.0,96,29.92,3.0,North,8.1,-,N/A,,Overcast,350,2014-02-01 13:52:00
8:00 AM,28.0,27.0,96,29.90,2.5,NNW,9.2,-,N/A,,Overcast,340,2014-02-01 14:00:00
8:52 AM,28.0,26.1,92,29.95,2.5,NNW,12.7,-,N/A,,Overcast,340,2014-02-01 14:52:00
9:11 AM,27.0,26.1,96,29.95,3.0,NNW,9.2,-,N/A,,Overcast,330,2014-02-01 15:11:00
9:52 AM,27.0,25.0,92,29.99,4.0,NNW,8.1,-,N/A,,Overcast,330,2014-02-01 15:52:00
10:52 AM,28.0,26.1,92,30.02,5.0,WNW,6.9,-,N/A,,Overcast,300,2014-02-01 16:52:00
11:25 AM,28.0,25.0,88,29.98,8.0,North,9.2,-,N/A,,Overcast,350,2014-02-01 17:25:00
11:52 AM,28.0,25.0,88,30.00,8.0,NNW,13.8,-,N/A,,Overcast,340,2014-02-01 17:52:00
12:00 PM,28.0,25.0,88,29.97,9.0,North,10.4,-,N/A,,Overcast,360,2014-02-01 18:00:00
12:19 PM,28.0,25.0,88,29.97,9.0,NNW,10.4,-,N/A,,Overcast,340,2014-02-01 18:19:00
12:52 PM,28.9,26.1,89,29.98,9.0,North,12.7,-,N/A,,Overcast,350,2014-02-01 18:52:00
1:52 PM,28.0,25.0,88,30.00,8.0,North,10.4,-,N/A,,Overcast,360,2014-02-01 19:52:00
2:52 PM,28.0,24.1,85,30.02,9.0,North,11.5,-,N/A,,Overcast,350,2014-02-01 20:52:00
3:20 PM,28.0,25.0,88,29.99,9.0,North,10.4,-,N/A,,Overcast,10,2014-02-01 21:20:00
3:45 PM,28.0,25.0,88,29.98,8.0,NNE,10.4,-,N/A,,Overcast,20,2014-02-01 21:45:00
3:52 PM,28.0,25.0,88,30.01,8.0,NNE,12.7,-,N/A,,Overcast,20,2014-02-01 21:52:00
4:16 PM,28.9,25.0,85,30.00,8.0,North,10.4,-,N/A,,Overcast,10,2014-02-01 22:16:00
4:27 PM,28.0,25.0,88,30.01,8.0,North,9.2,-,N/A,,Overcast,360,2014-02-01 22:27:00
4:52 PM,28.9,25.0,85,30.05,8.0,North,10.4,-,N/A,,Overcast,350,2014-02-01 22:52:00
5:52 PM,28.9,26.1,89,30.08,9.0,North,10.4,-,N/A,,Overcast,360,2014-02-01 23:52:00
6:52 PM,28.9,25.0,85,30.12,9.0,North,12.7,-,N/A,,Overcast,360,2014-02-02 00:52:00
7:52 PM,28.9,25.0,85,30.14,10.0,North,10.4,-,N/A,,Overcast,360,2014-02-02 01:52:00
8:42 PM,28.0,24.1,85,30.15,10.0,North,12.7,-,N/A,,Overcast,360,2014-02-02 02:42:00
8:52 PM,28.0,24.1,85,30.19,10.0,North,12.7,-,N/A,,Overcast,360,2014-02-02 02:52:00
9:01 PM,28.0,24.1,85,30.16,10.0,North,13.8,-,N/A,,Overcast,360,2014-02-02 03:01:00
9:31 PM,28.0,24.1,85,30.17,10.0,North,13.8,-,0.00,,Overcast,350,2014-02-02 03:31:00
9:52 PM,28.0,24.1,85,30.21,10.0,North,15.0,-,0.00,,Overcast,360,2014-02-02 03:52:00
10:52 PM,27.0,23.0,85,30.22,8.0,North,15.0,-,N/A,,Overcast,10,2014-02-02 04:52:00
11:52 PM,27.0,23.0,85,30.23,7.0,North,15.0,-,N/A,,Overcast,10,2014-02-02 05:52:00